<?xml version="1.0" encoding="UTF-8" standalone="no" ?>
<gpx xmlns="http://www.topografix.com/GPX/1/1" xmlns:xsi="http://www.w3.org/2001/XMLSchema-instance" xsi:schemaLocation="http://www.topografix.com/GPX/1/1 http://www.topografix.com/GPX/1/1/gpx.xsd" version="1.1" creator="VisuGPX - https://www.visugpx.com">
  <metadata>
    <name>GITER Poitou Charentes : boucle 86</name>
    <desc><![CDATA[Partie en Vienne de la Boucle centrale
[url]http://cdte86.free.fr/spip.php?article137[/url]]]></desc>
  </metadata>
  <trk>
    <name><![CDATA[Trk008]]></name>
    <trkseg>
      <trkpt lat="46.3124" lon="0.29119">
        <ele>119</ele>
        <time>2007-05-01T13:35:12Z</time>
      </trkpt>
      <trkpt lat="46.3141" lon="0.29295">
        <ele>114</ele>
        <time>2007-05-01T13:35:12Z</time>
      </trkpt>
      <trkpt lat="46.31384" lon="0.29348">
        <ele>112</ele>
        <time>2007-05-01T13:35:12Z</time>
      </trkpt>
      <trkpt lat="46.31348" lon="0.29336">
        <ele>110</ele>
        <time>2007-05-01T13:35:12Z</time>
      </trkpt>
      <trkpt lat="46.3127" lon="0.29261">
        <ele>109</ele>
        <time>2007-05-01T13:35:12Z</time>
      </trkpt>
      <trkpt lat="46.31234" lon="0.29282">
        <ele>104</ele>
        <time>2007-05-01T13:35:12Z</time>
      </trkpt>
      <trkpt lat="46.31187" lon="0.29387">
        <ele>104</ele>
        <time>2007-05-01T13:35:12Z</time>
      </trkpt>
      <trkpt lat="46.3127" lon="0.29755">
        <ele>113</ele>
        <time>2007-05-01T13:35:12Z</time>
      </trkpt>
      <trkpt lat="46.31251" lon="0.29957">
        <ele>122</ele>
        <time>2007-05-01T13:35:12Z</time>
      </trkpt>
      <trkpt lat="46.31282" lon="0.30157">
        <ele>134</ele>
        <time>2007-05-01T13:35:12Z</time>
      </trkpt>
      <trkpt lat="46.31369" lon="0.3027">
        <ele>138</ele>
        <time>2007-05-01T13:35:12Z</time>
      </trkpt>
      <trkpt lat="46.31428" lon="0.30288">
        <ele>132</ele>
        <time>2007-05-01T13:35:12Z</time>
      </trkpt>
      <trkpt lat="46.31454" lon="0.30241">
        <ele>127</ele>
        <time>2007-05-01T13:35:12Z</time>
      </trkpt>
      <trkpt lat="46.3141" lon="0.30061">
        <ele>122</ele>
        <time>2007-05-01T13:35:12Z</time>
      </trkpt>
      <trkpt lat="46.31575" lon="0.30185">
        <ele>146</ele>
        <time>2007-05-01T13:35:12Z</time>
      </trkpt>
      <trkpt lat="46.31929" lon="0.30392">
        <ele>163</ele>
        <time>2007-05-01T13:35:12Z</time>
      </trkpt>
      <trkpt lat="46.32032" lon="0.30577">
        <ele>173</ele>
        <time>2007-05-01T13:35:12Z</time>
      </trkpt>
      <trkpt lat="46.32061" lon="0.30939">
        <ele>184</ele>
        <time>2007-05-01T13:35:12Z</time>
      </trkpt>
      <trkpt lat="46.32079" lon="0.31212">
        <ele>185</ele>
        <time>2007-05-01T13:35:12Z</time>
      </trkpt>
      <trkpt lat="46.32068" lon="0.31348">
        <ele>180</ele>
        <time>2007-05-01T13:35:12Z</time>
      </trkpt>
      <trkpt lat="46.32088" lon="0.31458">
        <ele>178</ele>
        <time>2007-05-01T13:35:12Z</time>
      </trkpt>
      <trkpt lat="46.32202" lon="0.31558">
        <ele>181</ele>
        <time>2007-05-01T13:35:12Z</time>
      </trkpt>
      <trkpt lat="46.32321" lon="0.31638">
        <ele>187</ele>
        <time>2007-05-01T13:35:12Z</time>
      </trkpt>
      <trkpt lat="46.32416" lon="0.31667">
        <ele>187</ele>
        <time>2007-05-01T13:35:12Z</time>
      </trkpt>
      <trkpt lat="46.32466" lon="0.31749">
        <ele>178</ele>
        <time>2007-05-01T13:35:12Z</time>
      </trkpt>
      <trkpt lat="46.32543" lon="0.3174">
        <ele>172</ele>
        <time>2007-05-01T13:35:12Z</time>
      </trkpt>
      <trkpt lat="46.32594" lon="0.31602">
        <ele>173</ele>
        <time>2007-05-01T13:35:12Z</time>
      </trkpt>
      <trkpt lat="46.3266" lon="0.31502">
        <ele>174</ele>
        <time>2007-05-01T13:35:12Z</time>
      </trkpt>
      <trkpt lat="46.32707" lon="0.31338">
        <ele>180</ele>
        <time>2007-05-01T13:35:12Z</time>
      </trkpt>
      <trkpt lat="46.32747" lon="0.31304">
        <ele>178</ele>
        <time>2007-05-01T13:35:12Z</time>
      </trkpt>
      <trkpt lat="46.32664" lon="0.31209">
        <ele>188</ele>
        <time>2007-05-01T13:35:12Z</time>
      </trkpt>
      <trkpt lat="46.32582" lon="0.31186">
        <ele>193</ele>
        <time>2007-05-01T13:35:12Z</time>
      </trkpt>
      <trkpt lat="46.32478" lon="0.31106">
        <ele>194</ele>
        <time>2007-05-01T13:35:12Z</time>
      </trkpt>
      <trkpt lat="46.32442" lon="0.31133">
        <ele>194</ele>
        <time>2007-05-01T13:35:12Z</time>
      </trkpt>
      <trkpt lat="46.32333" lon="0.31053">
        <ele>193</ele>
        <time>2007-05-01T13:35:12Z</time>
      </trkpt>
      <trkpt lat="46.32301" lon="0.31275">
        <ele>191</ele>
        <time>2007-05-01T13:35:12Z</time>
      </trkpt>
      <trkpt lat="46.32169" lon="0.31208">
        <ele>189</ele>
        <time>2007-05-01T13:35:12Z</time>
      </trkpt>
      <trkpt lat="46.32092" lon="0.31458">
        <ele>178</ele>
        <time>2007-05-01T13:35:12Z</time>
      </trkpt>
      <trkpt lat="46.31919" lon="0.31308">
        <ele>176</ele>
        <time>2007-05-01T13:35:12Z</time>
      </trkpt>
      <trkpt lat="46.31795" lon="0.3119">
        <ele>170</ele>
        <time>2007-05-01T13:35:12Z</time>
      </trkpt>
      <trkpt lat="46.31667" lon="0.31103">
        <ele>164</ele>
        <time>2007-05-01T13:35:12Z</time>
      </trkpt>
      <trkpt lat="46.31508" lon="0.31005">
        <ele>157</ele>
        <time>2007-05-01T13:35:12Z</time>
      </trkpt>
      <trkpt lat="46.31444" lon="0.30956">
        <ele>156</ele>
        <time>2007-05-01T13:35:12Z</time>
      </trkpt>
      <trkpt lat="46.31366" lon="0.30855">
        <ele>153</ele>
        <time>2007-05-01T13:35:12Z</time>
      </trkpt>
      <trkpt lat="46.31229" lon="0.30743">
        <ele>149</ele>
        <time>2007-05-01T13:35:12Z</time>
      </trkpt>
      <trkpt lat="46.3098" lon="0.30655">
        <ele>145</ele>
        <time>2007-05-01T13:35:12Z</time>
      </trkpt>
      <trkpt lat="46.30774" lon="0.30708">
        <ele>142</ele>
        <time>2007-05-01T13:35:12Z</time>
      </trkpt>
      <trkpt lat="46.30628" lon="0.30616">
        <ele>135</ele>
        <time>2007-05-01T13:35:12Z</time>
      </trkpt>
      <trkpt lat="46.30525" lon="0.30614">
        <ele>135</ele>
        <time>2007-05-01T13:35:12Z</time>
      </trkpt>
      <trkpt lat="46.30325" lon="0.30498">
        <ele>136</ele>
        <time>2007-05-01T13:35:12Z</time>
      </trkpt>
      <trkpt lat="46.3026" lon="0.30422">
        <ele>135</ele>
        <time>2007-05-01T13:35:12Z</time>
      </trkpt>
      <trkpt lat="46.30064" lon="0.30293">
        <ele>135</ele>
        <time>2007-05-01T13:35:12Z</time>
      </trkpt>
      <trkpt lat="46.29942" lon="0.3022">
        <ele>132</ele>
        <time>2007-05-01T13:35:12Z</time>
      </trkpt>
      <trkpt lat="46.2987" lon="0.30255">
        <ele>123</ele>
        <time>2007-05-01T13:35:12Z</time>
      </trkpt>
      <trkpt lat="46.29826" lon="0.30302">
        <ele>114</ele>
        <time>2007-05-01T13:35:12Z</time>
      </trkpt>
      <trkpt lat="46.29735" lon="0.30266">
        <ele>111</ele>
        <time>2007-05-01T13:35:12Z</time>
      </trkpt>
    </trkseg>
  </trk>
</gpx>